Tracking 20621 objects as of 30-Mar-2020
HD Live streaming from Space Station
objects crossing your sky now

THOR 2A

Track THOR 2A now!
THOR 2A is classified as:


NORAD ID: 24808
Int'l Code: 1997-025A
Perigee: 36,127.3 km
Apogee: 36,197.9 km
Inclination: 8.4 °
Period: 1,455.0 minutes
Semi major axis: 42533 km
RCS: 15.8489 m2 (large)
Launch date: May 20, 1997
Source: Norway (NOR)
Launch site: AIR FORCE EASTERN TEST RANGE (AFETR)

15 Ku-band; Nordic region, northern Europe.
aabbcc
Your satellite tracking list
Your tracking list is empty




NASA's NSSDC Master Catalog

Two Line Element Set (TLE):
1 24808U 97025A   20089.35374412 -.00000059 +00000-0 +00000-0 0  9998
2 24808 008.3833 046.5070 0008307 303.3185 241.4381 00.98970324023608
Source of the keplerian elements: AFSPC